EW8945 Weather Reports


Display with metric or nautical units.
time (UTC)temp
F
wind
direction
speed
MPH
gust
MPH
rain 1hr
in
rain 24hr
in
rain mn
in
humidity
%
barometer
mb
20220702211550 73 74 6.0 17.0 0.00 0.00 0.00 56 1014.2
20220702211051 73 79 7.0 15.0 0.00 0.00 0.00 57 1014.2
20220702210551 73 351 7.0 15.0 0.00 0.00 0.00 57 1014.3
20220702210049 73 20 7.0 20.0 0.00 0.00 0.00 57 1014.3
20220702205549 73 0 6.0 20.0 0.00 0.00 0.00 58 1014.2
20220702205050 72 17 5.0 13.0 0.00 0.00 0.00 59 1014.3
20220702204550 71 348 7.0 15.0 0.00 0.00 0.00 60 1014.3
20220702204050 71 5 7.0 15.0 0.00 0.00 0.00 60 1014.3
20220702203552 70 60 8.0 15.0 0.00 0.00 0.00 61 1014.3
20220702203047 70 44 9.0 18.0 0.00 0.00 0.00 60 1014.3
20220702202545 70 0 8.0 18.0 0.00 0.00 0.00 60 1014.4
20220702202045 71 57 9.0 18.0 0.00 0.00 0.00 60 1014.3
20220702201548 71 35 8.0 18.0 0.00 0.00 0.00 59 1014.3
20220702201045 71 46 6.0 16.0 0.00 0.00 0.00 60 1014.4
20220702200543 71 36 6.0 13.0 0.00 0.00 0.00 60 1014.5
20220702200041 71 53 7.0 16.0 0.00 0.00 0.00 60 1014.5
20220702195541 70 36 7.0 16.0 0.00 0.00 0.00 61 1014.5
20220702195039 70 46 6.0 15.0 0.00 0.00 0.00 62 1014.5
20220702194540 70 51 7.0 16.0 0.00 0.00 0.00 61 1014.6
20220702194039 70 42 7.0 16.0 0.00 0.00 0.00 61 1014.6
20220702193539 70 29 6.0 16.0 0.00 0.00 0.00 61 1014.6
20220702193036 70 22 6.0 13.0 0.00 0.00 0.00 61 1014.7
20220702192535 70 46 6.0 13.0 0.00 0.00 0.00 61 1014.7
20220702192037 71 0 6.0 13.0 0.00 0.00 0.00 58 1014.7
20220702191535 71 9 7.0 13.0 0.00 0.00 0.00 58 1014.6
20220702191035 72 349 6.0 14.0 0.00 0.00 0.00 59 1014.6
20220702190535 72 46 3.0 14.0 0.00 0.00 0.00 56 1014.6
20220702190033 73 30 4.0 9.0 0.00 0.00 0.00 57 1014.7
20220702185534 73 234 5.0 9.0 0.00 0.00 0.00 57 1014.7
20220702185033 72 58 5.0 10.0 0.00 0.00 0.00 57 1014.7
20220702184534 72 355 4.0 10.0 0.00 0.00 0.00 59 1014.7
20220702184035 71 269 3.0 8.0 0.00 0.00 0.00 60 1014.7
20220702183533 71 303 4.0 10.0 0.00 0.00 0.00 61 1014.7
20220702183033 70 350 4.0 10.0 0.00 0.00 0.00 61 1014.8
20220702182534 70 334 3.0 8.0 0.00 0.00 0.00 63 1014.7
20220702182034 69 309 4.0 9.0 0.00 0.00 0.00 65 1014.8
20220702181534 68 300 4.0 10.0 0.00 0.00 0.00 66 1014.8
20220702181031 67 32 4.0 12.0 0.00 0.00 0.00 65 1014.8
20220702180533 67 355 5.0 12.0 0.00 0.00 0.00 66 1014.8
20220702180031 67 225 5.0 10.0 0.00 0.00 0.00 65 1014.8
20220702175531 66 334 5.0 10.0 0.00 0.00 0.00 66 1014.8
20220702175033 66 297 4.0 10.0 0.00 0.00 0.00 68 1014.8
20220702174531 65 5 3.0 9.0 0.00 0.00 0.00 69 1014.7
20220702174032 65 42 4.0 11.0 0.00 0.00 0.00 68 1014.8
20220702173529 65 5 5.0 11.0 0.00 0.00 0.00 69 1014.8
20220702173029 65 314 5.0 11.0 0.00 0.00 0.00 70 1014.8
20220702172530 64 355 5.0 9.0 0.00 0.00 0.00 70 1014.8
20220702172029 64 280 4.0 9.0 0.00 0.00 0.00 70 1014.8
20220702171531 64 26 4.0 10.0 0.00 0.00 0.00 70 1014.9
20220702171032 64 348 5.0 10.0 0.00 0.00 0.00 71 1014.9
20220702170530 64 325 5.0 12.0 0.00 0.00 0.00 71 1014.9
20220702170030 63 281 6.0 14.0 0.00 0.00 0.00 73 1014.9
20220702165530 63 301 5.0 14.0 0.00 0.00 0.00 73 1014.8
20220702165027 62 303 5.0 10.0 0.00 0.00 0.00 74 1014.9
20220702164528 62 279 5.0 11.0 0.00 0.00 0.00 75 1015.0
20220702164027 62 275 6.0 13.0 0.00 0.00 0.00 75 1015.0
20220702163527 62 309 6.0 13.0 0.00 0.00 0.00 76 1015.0
20220702163028 61 300 5.0 13.0 0.00 0.00 0.00 77 1015.0
20220702162528 61 295 4.0 11.0 0.00 0.00 0.00 77 1015.0
20220702162027 61 302 3.0 7.0 0.00 0.00 0.00 78 1015.0
20220702161527 60 220 3.0 7.0 0.00 0.00 0.00 79 1015.0
20220702161028 60 304 2.0 5.0 0.00 0.00 0.00 79 1015.0
20220702160526 60 5 3.0 6.0 0.00 0.00 0.00 80 1014.9
20220702160025 60 307 4.0 8.0 0.00 0.00 0.00 80 1014.9
20220702155526 60 331 4.0 8.0 0.00 0.00 0.00 80 1014.9
20220702155025 59 307 3.0 8.0 0.00 0.00 0.00 81 1014.8
20220702154526 59 12 3.0 8.0 0.00 0.00 0.00 81 1014.8
20220702154023 59 326 3.0 8.0 0.00 0.00 0.00 82 1014.8
20220702153521 58 340 3.0 8.0 0.00 0.00 0.00 82 1014.8
20220702153024 58 304 2.0 8.0 0.00 0.00 0.00 82 1014.8
20220702152522 58 302 2.0 8.0 0.00 0.00 0.00 83 1014.8
20220702152022 58 284 3.0 7.0 0.00 0.00 0.00 83 1014.6
20220702151522 58 294 3.0 8.0 0.00 0.00 0.00 83 1014.6
20220702151021 58 298 2.0 8.0 0.00 0.00 0.00 84 1014.6
20220702150522 58 298 2.0 7.0 0.00 0.00 0.00 84 1014.5
20220702150022 58 281 2.0 6.0 0.00 0.00 0.00 84 1014.5
20220702145522 57 296 3.0 7.0 0.00 0.00 0.00 84 1014.5
20220702145021 57 269 3.0 7.0 0.00 0.00 0.00 84 1014.5
20220702144523 57 292 3.0 7.0 0.00 0.00 0.00 85 1014.6
20220702144021 57 271 2.0 4.0 0.00 0.00 0.00 85 1014.6
20220702143520 57 279 2.0 7.0 0.00 0.00 0.00 85 1014.5
20220702143020 56 298 3.0 7.0 0.00 0.00 0.00 85 1014.5
20220702142519 56 306 2.0 6.0 0.00 0.00 0.00 85 1014.5
20220702142020 56 260 2.0 6.0 0.00 0.00 0.00 85 1014.5
20220702141519 56 302 2.0 4.0 0.00 0.00 0.00 85 1014.5
20220702141019 56 278 2.0 4.0 0.00 0.00 0.00 85 1014.4
20220702140520 55 249 1.0 4.0 0.00 0.00 0.00 85 1014.5
20220702140020 55 294 2.0 4.0 0.00 0.00 0.00 85 1014.5
20220702135519 55 297 2.0 4.0 0.00 0.00 0.00 85 1014.4
20220702135019 55 277 2.0 4.0 0.00 0.00 0.00 85 1014.4
20220702134519 55 287 2.0 3.0 0.00 0.00 0.00 84 1014.5
20220702134021 55 297 1.0 3.0 0.00 0.00 0.00 84 1014.4
20220702133520 54 297 1.0 3.0 0.00 0.00 0.00 84 1014.4
20220702133019 54 297 1.0 3.0 0.00 0.00 0.00 84 1014.4
20220702132520 54 297 1.0 3.0 0.00 0.00 0.00 84 1014.4
20220702132019 54 297 1.0 3.0 0.00 0.00 0.00 84 1014.4
20220702131520 54 297 1.0 3.0 0.00 0.00 0.00 84 1014.4
20220702131018 54 297 1.0 3.0 0.00 0.00 0.00 84 1014.4
20220702130520 54 298 1.0 3.0 0.00 0.00 0.00 84 1014.4
20220702130019 54 298 1.0 3.0 0.00 0.00 0.00 84 1014.4
20220702125519 54 298 1.0 3.0 0.00 0.00 0.00 84 1014.4
20220702125020 54 298 1.0 3.0 0.00 0.00 0.00 84 1014.4
20220702124518 54 298 1.0 3.0 0.00 0.00 0.00 83 1014.3
20220702124020 54 298 2.0 4.0 0.00 0.00 0.00 83 1014.3
20220702123518 54 298 1.0 4.0 0.00 0.00 0.00 83 1014.2
20220702123019 54 301 1.0 3.0 0.00 0.00 0.00 83 1014.2
20220702122520 54 300 1.0 3.0 0.00 0.00 0.00 83 1014.2
20220702122019 54 306 1.0 4.0 0.00 0.00 0.00 83 1014.2
20220702121520 54 306 1.0 4.0 0.00 0.00 0.00 83 1014.2
20220702121022 54 337 1.0 4.0 0.00 0.00 0.00 83 1014.1
20220702120520 54 296 2.0 6.0 0.00 0.00 0.00 83 1014.1
20220702120020 54 298 2.0 6.0 0.00 0.00 0.00 83 1014.1
20220702115519 54 294 2.0 4.0 0.00 0.00 0.00 83 1014.1
20220702115019 54 291 2.0 4.0 0.00 0.00 0.00 83 1014.0
20220702114519 54 340 2.0 4.0 0.00 0.00 0.00 83 1014.0
20220702114019 54 303 2.0 4.0 0.00 0.00 0.00 83 1014.0
20220702113519 54 308 2.0 3.0 0.00 0.00 0.00 83 1014.1
20220702113019 54 304 2.0 3.0 0.00 0.00 0.00 83 1014.1
20220702112519 54 304 2.0 3.0 0.00 0.00 0.00 83 1014.1
20220702112021 55 304 2.0 4.0 0.00 0.00 0.00 83 1014.1
20220702111520 55 300 2.0 4.0 0.00 0.00 0.00 83 1014.2
20220702111018 55 300 2.0 3.0 0.00 0.00 0.00 83 1014.1
20220702110518 55 327 1.0 3.0 0.00 0.00 0.00 83 1014.1
20220702110025 55 355 1.0 3.0 0.00 0.00 0.00 83 1014.2
20220702105521 55 355 1.0 3.0 0.00 0.00 0.00 83 1014.2
20220702105020 55 355 1.0 2.0 0.00 0.00 0.00 83 1014.2
20220702104519 55 355 0.0 2.0 0.00 0.00 0.00 83 1014.2
20220702104018 55 355 0.0 2.0 0.00 0.00 0.00 83 1014.3
20220702103521 55 355 1.0 2.0 0.00 0.00 0.00 83 1014.3
20220702103020 55 355 1.0 3.0 0.00 0.00 0.00 83 1014.3
20220702102520 55 355 1.0 3.0 0.00 0.00 0.00 83 1014.3
20220702102016 55 355 0.0 3.0 0.00 0.00 0.00 84 1014.3
20220702101517 55 355 0.0 0.0 0.00 0.00 0.00 83 1014.4
20220702101016 55 355 0.0 1.0 0.00 0.00 0.00 83 1014.3
20220702100516 55 355 0.0 1.0 0.00 0.00 0.00 83 1014.3
20220702100015 55 355 0.0 2.0 0.00 0.00 0.00 83 1014.3
20220702095515 55 355 1.0 2.0 0.00 0.00 0.00 84 1014.4
20220702095015 55 355 1.0 2.0 0.00 0.00 0.00 84 1014.3
20220702094514 56 355 1.0 2.0 0.00 0.00 0.00 84 1014.4
20220702094015 55 355 1.0 2.0 0.00 0.00 0.00 84 1014.4
20220702093514 56 355 1.0 3.0 0.00 0.00 0.00 84 1014.4
20220702093013 56 355 1.0 3.0 0.00 0.00 0.00 84 1014.4
20220702092512 56 355 1.0 4.0 0.00 0.00 0.00 84 1014.4
20220702092014 56 355 1.0 4.0 0.00 0.00 0.00 84 1014.4
20220702091512 56 350 1.0 3.0 0.00 0.00 0.00 84 1014.4
20220702091012 56 351 1.0 3.0 0.00 0.00 0.00 84 1014.4
20220702090510 56 351 1.0 3.0 0.00 0.00 0.00 84 1014.4
20220702090010 56 351 1.0 3.0 0.00 0.00 0.00 84 1014.5
20220702085511 56 351 1.0 3.0 0.00 0.00 0.00 84 1014.5
20220702085010 56 351 1.0 2.0 0.00 0.00 0.00 83 1014.5
20220702084510 56 351 1.0 2.0 0.00 0.00 0.00 84 1014.5
20220702084010 56 351 1.0 3.0 0.00 0.00 0.00 84 1014.5
20220702083511 56 351 1.0 3.0 0.00 0.00 0.00 84 1014.5
20220702083008 56 351 1.0 3.0 0.00 0.00 0.00 84 1014.5
20220702082506 56 351 1.0 4.0 0.00 0.00 0.00 84 1014.5
20220702082006 56 9 2.0 4.0 0.00 0.00 0.00 84 1014.5
20220702081506 56 15 2.0 4.0 0.00 0.00 0.00 84 1014.5
20220702081007 56 355 2.0 5.0 0.00 0.00 0.00 84 1014.5
20220702080506 56 333 3.0 5.0 0.00 0.00 0.00 84 1014.6
20220702080006 56 348 3.0 5.0 0.00 0.00 0.00 84 1014.6
20220702075506 56 338 2.0 5.0 0.00 0.00 0.00 84 1014.6
20220702075007 56 0 1.0 4.0 0.00 0.00 0.00 84 1014.6
20220702074507 56 20 1.0 2.0 0.00 0.00 0.00 84 1014.6
20220702074007 56 58 1.0 3.0 0.00 0.00 0.00 84 1014.6
20220702073507 56 58 1.0 3.0 0.00 0.00 0.00 84 1014.6
20220702073004 56 58 1.0 3.0 0.00 0.00 0.00 84 1014.6
20220702072505 56 58 1.0 3.0 0.00 0.00 0.00 84 1014.6
20220702072005 56 58 1.0 3.0 0.00 0.00 0.00 84 1014.6
20220702071503 56 58 1.0 2.0 0.00 0.00 0.00 84 1014.6
20220702071004 56 58 1.0 2.0 0.00 0.00 0.00 84 1014.6
20220702070504 55 58 1.0 2.0 0.00 0.00 0.00 84 1014.5
20220702070002 55 58 2.0 3.0 0.00 0.00 0.00 84 1014.6
20220702065501 55 58 2.0 3.0 0.00 0.00 0.00 84 1014.5
20220702065001 55 58 2.0 3.0 0.00 0.00 0.00 83 1014.5
20220702064501 55 58 2.0 4.0 0.00 0.00 0.00 83 1014.6
20220702064001 56 57 2.0 4.0 0.00 0.00 0.00 83 1014.6
20220702063501 56 55 2.0 3.0 0.00 0.00 0.00 83 1014.7
20220702063002 56 55 2.0 3.0 0.00 0.00 0.00 83 1014.7
20220702062500 56 55 2.0 3.0 0.00 0.00 0.00 83 1014.7
20220702062000 56 55 2.0 3.0 0.00 0.00 0.00 83 1014.8
20220702061501 56 55 2.0 3.0 0.00 0.00 0.00 83 1014.8
20220702061000 56 59 1.0 3.0 0.00 0.00 0.00 82 1014.8
20220702060501 56 109 1.0 3.0 0.00 0.00 0.00 82 1014.8
20220702060001 56 109 1.0 2.0 0.00 0.00 0.00 82 1014.8
20220702055500 56 109 1.0 3.0 0.00 0.00 0.00 83 1014.9
20220702055002 56 109 2.0 3.0 0.00 0.00 0.00 83 1014.9
20220702054459 57 109 2.0 3.0 0.00 0.00 0.00 82 1014.9
20220702054000 57 140 1.0 3.0 0.00 0.00 0.00 82 1014.9
20220702053501 57 140 1.0 3.0 0.00 0.00 0.00 82 1014.8
20220702052959 57 140 2.0 3.0 0.00 0.00 0.00 82 1014.8
20220702052459 57 140 2.0 3.0 0.00 0.00 0.00 82 1014.8
20220702051958 57 155 1.0 3.0 0.00 0.00 0.00 82 1014.8
20220702051501 57 155 2.0 3.0 0.00 0.00 0.00 82 1014.8
20220702050958 57 155 2.0 4.0 0.00 0.00 0.00 82 1014.6
20220702050459 57 116 2.0 4.0 0.00 0.00 0.00 82 1014.6
20220702045959 58 113 2.0 4.0 0.00 0.00 0.00 82 1014.5
20220702045500 58 115 2.0 4.0 0.00 0.00 0.00 82 1014.6
20220702044959 58 96 2.0 6.0 0.00 0.00 0.00 82 1014.5
20220702044459 58 94 2.0 6.0 0.00 0.00 0.00 82 1014.5
20220702043958 58 34 3.0 8.0 0.00 0.00 0.00 82 1014.4
20220702043501 58 36 4.0 9.0 0.00 0.00 0.00 81 1014.3
20220702042959 58 71 3.0 9.0 0.00 0.00 0.00 81 1014.3
20220702042458 58 9 4.0 10.0 0.00 0.00 0.00 81 1014.2
20220702042000 58 28 4.0 10.0 0.00 0.00 0.00 81 1014.1
20220702041459 58 41 4.0 11.0 0.00 0.00 0.00 80 1014.1
20220702040958 58 61 4.0 11.0 0.00 0.00 0.00 80 1014.0
20220702040458 59 43 4.0 11.0 0.00 0.00 0.00 79 1014.1
20220702035958 59 21 3.0 11.0 0.00 0.00 0.00 79 1014.1
20220702035458 59 0 3.0 9.0 0.00 0.00 0.00 79 1014.0
20220702034959 59 30 3.0 9.0 0.00 0.00 0.00 78 1014.0
20220702034504 60 9 4.0 10.0 0.00 0.00 0.00 78 1014.0
20220702033959 60 355 3.0 10.0 0.00 0.00 0.00 78 1013.9
20220702033459 60 355 3.0 7.0 0.00 0.00 0.00 77 1013.9
20220702032959 60 327 4.0 10.0 0.00 0.00 0.00 76 1013.8
20220702032458 61 38 3.0 10.0 0.00 0.00 0.00 76 1013.8
20220702032000 61 41 3.0 8.0 0.00 0.00 0.00 76 1013.8
20220702031458 61 0 3.0 8.0 0.00 0.00 0.00 75 1013.8
20220702030958 61 57 4.0 11.0 0.00 0.00 0.00 75 1013.7
20220702030459 62 10 5.0 13.0 0.00 0.00 0.00 74 1013.7
20220702025959 62 15 4.0 13.0 0.00 0.00 0.00 74 1013.7
20220702025459 62 326 4.0 10.0 0.00 0.00 0.00 73 1013.7
20220702024958 62 335 4.0 10.0 0.00 0.00 0.00 73 1013.7
20220702024458 63 49 5.0 12.0 0.00 0.00 0.00 72 1013.7
20220702023958 63 315 5.0 12.0 0.00 0.00 0.00 72 1013.7
20220702023500 63 355 5.0 12.0 0.00 0.00 0.00 71 1013.7
20220702022956 64 5 5.0 12.0 0.00 0.00 0.00 70 1013.6
20220702022456 64 349 5.0 12.0 0.00 0.00 0.00 70 1013.6
20220702021956 64 355 4.0 12.0 0.00 0.00 0.00 70 1013.6
20220702021457 65 350 4.0 11.0 0.00 0.00 0.00 70 1013.4
20220702020957 65 17 5.0 14.0 0.00 0.00 0.00 70 1013.4
20220702020458 65 350 5.0 14.0 0.00 0.00 0.00 69 1013.3
20220702015954 66 24 6.0 14.0 0.00 0.00 0.00 69 1013.3
20220702015454 66 48 6.0 14.0 0.00 0.00 0.00 68 1013.3
20220702014954 67 355 6.0 12.0 0.00 0.00 0.00 67 1013.3
20220702014454 67 28 6.0 13.0 0.00 0.00 0.00 67 1013.3
20220702013955 68 36 6.0 13.0 0.00 0.00 0.00 67 1013.3
20220702013455 68 61 6.0 11.0 0.00 0.00 0.00 67 1013.2
20220702012954 68 355 6.0 11.0 0.00 0.00 0.00 66 1013.2
20220702012453 68 326 5.0 12.0 0.00 0.00 0.00 65 1013.3
20220702011953 69 23 6.0 14.0 0.00 0.00 0.00 65 1013.2
20220702011452 69 340 7.0 14.0 0.00 0.00 0.00 64 1013.3
20220702010952 69 0 7.0 15.0 0.00 0.00 0.00 64 1013.2
20220702010452 69 43 6.0 15.0 0.00 0.00 0.00 63 1013.2
20220702005953 69 0 6.0 13.0 0.00 0.00 0.00 63 1013.1
20220702005454 70 315 6.0 13.0 0.00 0.00 0.00 62 1013.2
20220702004952 70 9 6.0 13.0 0.00 0.00 0.00 62 1013.2
20220702004452 70 34 5.0 13.0 0.00 0.00 0.00 62 1013.2
20220702003952 70 17 5.0 11.0 0.00 0.00 0.00 62 1013.2
20220702003454 70 339 6.0 12.0 0.00 0.00 0.00 61 1013.3
20220702002952 71 10 6.0 13.0 0.00 0.00 0.00 60 1013.4
20220702002450 71 22 5.0 13.0 0.00 0.00 0.00 60 1013.4
20220702001952 71 328 6.0 12.0 0.00 0.00 0.00 61 1013.6
20220702001450 71 330 6.0 12.0 0.00 0.00 0.00 61 1013.4
20220702000951 71 47 6.0 14.0 0.00 0.00 0.00 60 1013.6
20220702000452 72 12 7.0 14.0 0.00 0.00 0.00 60 1013.7
20220701235950 72 38 6.0 13.0 0.00 0.00 0.00 60 1013.6
20220701235452 72 36 6.0 14.0 0.00 0.00 0.00 58 1013.7
20220701234949 72 348 6.0 14.0 0.00 0.00 0.00 59 1013.7
20220701234449 73 13 6.0 14.0 0.00 0.00 0.00 59 1013.7
20220701233950 73 10 7.0 14.0 0.00 0.00 0.00 57 1013.7
20220701233447 74 0 6.0 12.0 0.00 0.00 0.00 57 1013.7
20220701232948 74 355 5.0 12.0 0.00 0.00 0.00 57 1013.7
20220701232448 74 329 5.0 11.0 0.00 0.00 0.00 56 1013.8
20220701231948 74 355 6.0 12.0 0.00 0.00 0.00 55 1013.9
20220701231448 75 55 7.0 12.0 0.00 0.00 0.00 55 1013.9
20220701230946 74 325 6.0 12.0 0.00 0.00 0.00 56 1013.9
20220701230447 74 336 6.0 13.0 0.00 0.00 0.00 57 1013.9
20220701225947 74 324 6.0 13.0 0.00 0.00 0.00 56 1014.0
20220701225446 74 47 6.0 11.0 0.00 0.00 0.00 56 1014.1
20220701224947 74 17 5.0 13.0 0.00 0.00 0.00 55 1014.1
20220701224447 74 19 5.0 13.0 0.00 0.00 0.00 55 1014.1
20220701223947 74 62 5.0 11.0 0.00 0.00 0.00 56 1014.2
20220701223446 74 11 6.0 14.0 0.00 0.00 0.00 56 1014.1
20220701222946 74 0 7.0 14.0 0.00 0.00 0.00 56 1014.2
20220701222447 74 0 6.0 14.0 0.00 0.00 0.00 55 1014.2
20220701221945 75 355 5.0 12.0 0.00 0.00 0.00 55 1014.3
20220701221446 74 29 6.0 12.0 0.00 0.00 0.00 56 1014.3
20220701220944 74 346 6.0 13.0 0.00 0.00 0.00 55 1014.3
20220701220445 75 333 6.0 13.0 0.00 0.00 0.00 56 1014.3
20220701215947 75 0 6.0 12.0 0.00 0.00 0.00 56 1014.4
20220701215444 75 332 6.0 12.0 0.00 0.00 0.00 55 1014.4
20220701214944 75 51 6.0 13.0 0.00 0.00 0.00 55 1014.4
20220701214443 75 27 6.0 13.0 0.00 0.00 0.00 54 1014.4
20220701213940 75 316 7.0 14.0 0.00 0.00 0.00 55 1014.4
20220701213441 75 32 7.0 16.0 0.00 0.00 0.00 56 1014.5
20220701212938 74 321 7.0 16.0 0.00 0.00 0.00 56 1014.5
20220701212440 74 51 6.0 12.0 0.00 0.00 0.00 56 1014.5